PHASE 3B (AO-10)

Last updated on Thu Oct 30 2025 00:03:10 GMT+0000 (Coordinated Universal Time)

1 14129U 83058B 25302.20150672 -.00000104 00000+0 00000+0 0 9990 2 14129 26.1789 258.7668 6067650 51.2378 348.9388 2.05871622290737
UTC large
Height (km)
Speed (km/s)
/
Latitude / Longitude
Inclination (degrees)
Orbital Period (minutes)
Azimuth
Elevation
Range (km)
Doppler Factor

Next 0 passes for location: London (51.5072 / 0.1276)

Sorry there are no passes over London.